La Grange, TX

6:53 PM CST on December 05, 2019 (GMT -0600)
La Grange

Weather History for K3T5 - July, 2019

Change the Weather History Date:

Wednesday, July 31, 2019

  Actual Average (WUND) Record (WUND)
Temperature  
Mean Temperature 88 °F -  
Max Temperature 99 °F - - (-1)
Min Temperature 77 °F - - (-1)
Cooling Degree Days 23    
Growing Degree Days 38 (Base 50)    
Moisture  
Dew Point 75 °F    
Average Humidity 72    
Maximum Humidity 100    
Minimum Humidity 40    
Precipitation  
Precipitation 0.00 in - - ()
Sea Level Pressure  
Sea Level Pressure 29.98 in    
Wind  
Wind Speed 1 mph (SSE)    
Max Wind Speed 9 mph    
Max Gust Speed -    
Visibility 10 miles    
Events      
Averages and records for this station are not official NWS values.
T = Trace of Precipitation, MM = Missing Value Source: NWS Daily Summary

Daily Weather History Graph

Daily Weather History Graph

Search for Another Location

Airport or City:

Astronomy

Jul. 31, 2019 Rise Set
Actual Time 6:46 AM CDT 8:21 PM CDT
Civil Twilight 6:20 AM CDT 8:47 PM CDT
Nautical Twilight 5:49 AM CDT 9:18 PM CDT
Astronomical Twilight 5:16 AM CDT 9:51 PM CDT
Moon 6:05 AM CDT (7/31) 8:19 PM CDT (7/31)
Length of Visible Light 14h 27m
Length of Day
13h 35m
Waning Crescent, 0% of the Moon is Illuminated
Jul 31
Waning Crescent
Jul 31
New
Aug 7
First Quarter
Aug 15
Full
Aug 23
Last Quarter

Hourly Weather History & Observations

Time (CDT) Temp. Heat Index Dew Point Humidity Pressure Visibility Wind Dir Wind Speed Gust Speed Precip Events Conditions
12:35 AM 80.1 °F 86.1 °F 77.5 °F 92% 29.97 in 10.0 mi Calm Calm - N/A   Clear
12:55 AM 81.0 °F 88.6 °F 78.3 °F 91% 29.97 in 7.0 mi Calm Calm - N/A   Clear
1:15 AM 80.8 °F 88.5 °F 78.4 °F 93% 29.96 in 10.0 mi Calm Calm - N/A   Clear
1:35 AM 80.1 °F 86.4 °F 78.3 °F 94% 29.96 in 10.0 mi Calm Calm - N/A   Clear
1:55 AM 79.7 °F - 78.4 °F 96% 29.96 in 10.0 mi Calm Calm - N/A   Clear
2:15 AM 79.2 °F - 78.8 °F 99% 29.96 in 10.0 mi Calm Calm - N/A   Clear
2:35 AM 79.0 °F - 78.8 °F 99% 29.96 in 10.0 mi Calm Calm - N/A   Clear
2:55 AM 78.1 °F - 78.1 °F 100% 29.97 in 10.0 mi Calm Calm - N/A   Clear
3:15 AM 77.9 °F - 77.9 °F 100% 29.97 in 10.0 mi Calm Calm - N/A   Clear
3:35 AM 77.5 °F - 77.5 °F 100% 29.96 in 10.0 mi Calm Calm - N/A   Clear
3:55 AM 77.0 °F - 77.0 °F 100% 29.97 in 10.0 mi Calm Calm - N/A   Mostly Cloudy
4:15 AM 77.0 °F - 77.0 °F 100% 29.97 in 10.0 mi Calm Calm - N/A   Mostly Cloudy
4:35 AM 77.5 °F - 77.5 °F 100% 29.97 in 10.0 mi Calm Calm - N/A   Overcast
4:55 AM 77.9 °F - 77.9 °F 100% 29.97 in 10.0 mi Calm Calm - N/A   Overcast
5:15 AM 78.1 °F - 78.1 °F 100% 29.97 in 10.0 mi Calm Calm - N/A   Overcast
5:35 AM 77.9 °F - 77.9 °F 100% 29.97 in 10.0 mi Calm Calm - N/A   Mostly Cloudy
6:15 AM 77.4 °F - 77.4 °F 100% 29.99 in 7.0 mi Calm Calm - N/A   Mostly Cloudy
6:35 AM 77.0 °F - 77.0 °F 100% 29.99 in 7.0 mi Calm Calm - N/A   Scattered Clouds
6:55 AM 77.0 °F - 77.0 °F 100% 29.99 in 7.0 mi Calm Calm - N/A   Clear
7:15 AM 77.2 °F - 77.2 °F 100% 30.00 in 7.0 mi Calm Calm - N/A   Clear
7:35 AM 77.5 °F - 77.5 °F 100% 30.01 in 7.0 mi Calm Calm - N/A   Clear
7:55 AM 78.3 °F - 78.3 °F 100% 30.01 in 7.0 mi Calm Calm - N/A   Scattered Clouds
8:15 AM 79.9 °F - 79.9 °F 100% 30.02 in 10.0 mi Calm Calm - N/A   Scattered Clouds
8:35 AM 81.9 °F 92.5 °F 80.4 °F 95% 30.03 in 10.0 mi SW 3.5 mph - N/A   Scattered Clouds
8:55 AM 82.9 °F 94.1 °F 79.3 °F 89% 30.03 in 10.0 mi SW 3.5 mph - N/A   Mostly Cloudy
9:55 AM 86.9 °F 97.8 °F 76.3 °F 71% 30.04 in 10.0 mi SSW 4.6 mph - N/A   Clear
10:15 AM 87.8 °F 98.1 °F 75.7 °F 67% 30.05 in 10.0 mi SSW 3.5 mph - N/A   Scattered Clouds
10:35 AM 88.9 °F 99.2 °F 75.2 °F 64% 30.05 in 10.0 mi West 3.5 mph - N/A   Clear
10:55 AM 89.1 °F 99.1 °F 74.8 °F 63% 30.04 in 7.0 mi Calm Calm - N/A   Clear
11:15 AM 89.6 °F 98.2 °F 73.6 °F 59% 30.04 in 10.0 mi Calm Calm - N/A   Clear
11:35 AM 91.2 °F 100.2 °F 73.6 °F 56% 30.04 in 10.0 mi South 3.5 mph - N/A   Clear
11:55 AM 91.4 °F 99.5 °F 72.7 °F 54% 30.04 in 10.0 mi Calm Calm - N/A   Clear
12:15 PM 93.2 °F 102.4 °F 73.2 °F 52% 30.03 in 10.0 mi Calm Calm - N/A   Clear
12:35 PM 93.4 °F 101.5 °F 72.3 °F 50% 30.03 in 10.0 mi Calm Calm - N/A   Clear
12:55 PM 94.1 °F 103.8 °F 73.2 °F 51% 30.02 in 10.0 mi Calm Calm - N/A   Clear
1:15 PM 94.6 °F 103.7 °F 72.9 °F 49% 30.01 in 10.0 mi Calm Calm - N/A   Scattered Clouds
1:35 PM 95.9 °F 105.9 °F 73.0 °F 48% 30.00 in 10.0 mi Calm Calm - N/A   Scattered Clouds
1:55 PM 95.7 °F 105.5 °F 72.9 °F 48% 29.99 in 10.0 mi ESE 3.5 mph - N/A   Clear
2:15 PM 96.6 °F 105.4 °F 72.1 °F 45% 29.99 in 10.0 mi SSE 4.6 mph - N/A   Clear
2:35 PM 97.2 °F 104.5 °F 70.9 °F 42% 29.98 in 10.0 mi Calm Calm - N/A   Clear
2:55 PM 96.8 °F 105.1 °F 71.6 °F 44% 29.98 in 10.0 mi South 3.5 mph - N/A   Clear
3:15 PM 96.8 °F 104.4 °F 70.7 °F 43% 29.97 in 10.0 mi SE 3.5 mph - N/A   Clear
3:35 PM 98.4 °F 105.8 °F 70.0 °F 40% 29.97 in 10.0 mi South 3.5 mph - N/A   Clear
3:55 PM 98.1 °F 106.5 °F 71.6 °F 42% 29.96 in 10.0 mi SE 5.8 mph - N/A   Clear
4:15 PM 99.3 °F 108.5 °F 71.6 °F 41% 29.96 in 10.0 mi ESE 5.8 mph - N/A   Clear
4:35 PM 98.1 °F 105.0 °F 69.8 °F 40% 29.96 in 10.0 mi Calm Calm - N/A   Clear
4:55 PM 97.2 °F 104.5 °F 70.3 °F 42% 29.95 in 10.0 mi SE 3.5 mph - N/A   Scattered Clouds
5:15 PM 98.2 °F 105.4 °F 70.0 °F 40% 29.95 in 10.0 mi Calm Calm - N/A   Clear
5:35 PM 95.9 °F 102.5 °F 70.3 °F 43% 29.94 in 10.0 mi NNE 3.5 mph - N/A   Clear
5:55 PM 97.3 °F 104.9 °F 70.9 °F 42% 29.94 in 10.0 mi Calm Calm - N/A   Clear
6:15 PM 97.5 °F 103.9 °F 69.3 °F 40% 29.94 in 10.0 mi Calm Calm - N/A   Clear
6:35 PM 96.8 °F 105.1 °F 71.6 °F 44% 29.93 in 10.0 mi SSE 4.6 mph - N/A   Scattered Clouds
6:55 PM 95.9 °F 104.5 °F 72.0 °F 46% 29.93 in 10.0 mi SSW 3.5 mph - N/A   Scattered Clouds
7:15 PM 94.8 °F 104.1 °F 72.9 °F 49% 29.94 in 10.0 mi South 9.2 mph - N/A   Clear
7:35 PM 90.5 °F 101.5 °F 75.4 °F 61% 29.94 in 10.0 mi SSE 6.9 mph - N/A   Clear
7:55 PM 89.6 °F 100.4 °F 75.6 °F 63% 29.95 in 10.0 mi SSE 4.6 mph - N/A   Clear
8:15 PM 88.5 °F 98.8 °F 75.6 °F 65% 29.95 in 10.0 mi SSE 3.5 mph - N/A   Clear
8:35 PM 87.4 °F 97.7 °F 75.6 °F 68% 29.95 in 10.0 mi SSE 3.5 mph - N/A   Clear
8:55 PM 86.9 °F 96.4 °F 75.4 °F 68% 29.95 in 10.0 mi Calm Calm - N/A   Clear
9:15 PM 85.8 °F 95.1 °F 75.4 °F 71% 29.95 in 10.0 mi Calm Calm - N/A   Clear
9:35 PM 85.1 °F 94.1 °F 75.4 °F 73% 29.96 in 10.0 mi Calm Calm - N/A   Clear
9:55 PM 84.2 °F 92.6 °F 75.4 °F 75% 29.97 in 10.0 mi Calm Calm - N/A   Clear
10:15 PM 83.3 °F 91.4 °F 75.7 °F 78% 29.97 in 10.0 mi Calm Calm - N/A   Clear
10:35 PM 83.1 °F 91.3 °F 76.1 °F 79% 29.97 in 10.0 mi Calm Calm - N/A   Clear
10:55 PM 81.9 °F 89.2 °F 76.1 °F 83% 29.97 in 10.0 mi Calm Calm - N/A   Clear
11:15 PM 82.0 °F 89.4 °F 76.1 °F 82% 29.98 in 10.0 mi Calm Calm - N/A   Clear
11:35 PM 81.7 °F 88.7 °F 75.9 °F 83% 29.98 in 10.0 mi SSE 3.5 mph - N/A   Clear
11:55 PM 81.5 °F 88.0 °F 75.6 °F 82% 29.99 in 10.0 mi SSE 3.5 mph - N/A   Clear